This is the latest recevied weather packets stored in our database for station/object 9D9-WX. If no packets are shown the sender has not sent any weather packets the latest 10 day(s).
| Time | Temp. | Humidity | Pressure | Rain* | Wind** | Luminosity | Snow |
|---|---|---|---|---|---|---|---|
| 1777905914 | 16.67° C | 62% | 975.3 hPa | 0 mm | - | - | - |
| 1777905026 | 16.11° C | 64% | 976 hPa | 0 mm | - | - | - |
| 1777904110 | 15.56° C | 64% | 976 hPa | 0 mm | - | - | - |
| 1777903236 | 15° C | 62% | 975.2 hPa | 0 mm | - | - | - |
| 1777902314 | 14.44° C | 66% | 975.1 hPa | 0 mm | - | - | - |
| 1777901429 | 13.89° C | 66% | 975.1 hPa | 0 mm | - | - | - |
| 1777900514 | 13.33° C | 66% | 975.1 hPa | 0 mm | - | - | - |
| 1777899636 | 12.78° C | 67% | 975 hPa | 0 mm | - | - | - |
| 1777898714 | 12.22° C | 76% | 975.5 hPa | 0 mm | - | - | - |
| 1777897830 | 11.67° C | 76% | 975.5 hPa | 0 mm | - | - | - |
| 1777896914 | 10.56° C | 76% | 975.5 hPa | 0 mm | - | - | - |
| 1777896034 | 10° C | 76% | 975.5 hPa | 0 mm | - | - | - |
| 1777895114 | 8.89° C | 79% | 974.4 hPa | 0 mm | - | - | - |
| 1777894225 | 8.33° C | 82% | 974.8 hPa | 0 mm | - | - | - |
| 1777893314 | 7.78° C | 82% | 974.8 hPa | 0 mm | - | - | - |
| 1777892431 | 7.78° C | 82% | 974.8 hPa | 0 mm | - | - | - |
| 1777891514 | 7.78° C | 79% | 974.9 hPa | 0 mm | - | - | - |
| 1777890630 | 7.78° C | 81% | 974.8 hPa | 0 mm | - | - | - |
| 1777889711 | 7.78° C | 81% | 974.8 hPa | 0 mm | - | - | - |
| 1777888829 | 8.33° C | 81% | 974.8 hPa | 0 mm | - | - | - |
| 1777887914 | 8.33° C | 78% | 975.3 hPa | 0 mm | - | - | - |
| 1777887030 | 8.33° C | 77% | 975 hPa | 0 mm | - | - | - |
| 1777886114 | 8.33° C | 77% | 975 hPa | 0 mm | - | - | - |
| 1777885235 | 8.89° C | 78% | 974.4 hPa | 0 mm | - | - | - |
| 1777884313 | 8.33° C | 73% | 975.1 hPa | 0 mm | - | - | - |
* Rain latest hour (hover to see other rain measurements)
** Current wind speed in m/s (hover to see current wind gust speed)